DW9234 Weather Reports


time (UTC)temp
F
wind
direction
speed
knots
gust
knots
rain 1hr
in
rain 24hr
in
rain mn
in
humidity
%
barometer
mb
20260904123004 73 64 0.0 4.3 0.00 0.00 0.00 85 1014.7
20260904122005 73 301 0.0 3.5 0.00 0.00 0.00 86 1014.5
20260904120005 72 279 0.9 3.5 0.00 0.00 0.00 86 1014.3
20260904115005 73 269 0.0 1.7 0.00 0.00 0.00 86 1014.3
20260904113004 73 113 0.9 1.7 0.00 0.00 0.00 86 1014.0
20260904112005 73 110 0.0 1.7 0.00 0.00 0.00 86 1014.3
20260904111005 73 342 0.0 4.3 0.00 0.00 0.00 86 1014.2
20260904110004 73 252 0.9 5.2 0.00 0.00 0.00 86 1014.0
20260904104004 73 249 0.0 0.0 0.00 0.00 0.00 86 1013.8
20260904103004 73 294 0.0 0.0 0.00 0.00 0.00 86 1013.5
20260904102005 73 280 0.0 0.0 0.00 0.00 0.00 86 1013.4
20260904101005 73 215 0.0 0.9 0.00 0.00 0.00 86 1013.4
20260904100005 74 197 0.0 0.0 0.00 0.00 0.00 86 1013.4
20260904095005 74 194 0.0 0.0 0.00 0.00 0.00 86 1013.4
20260904091005 74 194 0.0 0.9 0.00 0.00 0.00 86 1013.8
20260904090005 74 275 0.0 0.0 0.00 0.00 0.00 87 1014.0
20260904085004 74 267 0.0 0.9 0.00 0.00 0.00 87 1014.0
20260904084005 74 188 0.0 0.0 0.00 0.00 0.00 87 1013.9
20260904083005 74 282 0.0 4.3 0.00 0.00 0.00 87 1014.0
20260904082005 74 316 0.0 1.7 0.00 0.00 0.00 87 1014.0
20260904081005 74 194 0.0 0.0 0.00 0.00 0.00 87 1013.9
20260904080004 74 106 0.0 0.9 0.00 0.00 0.00 87 1014.2
20260904075005 74 265 0.0 0.9 0.00 0.00 0.00 87 1014.2
20260904074004 74 334 0.0 0.0 0.00 0.00 0.00 87 1014.1
20260904073005 74 273 0.0 4.3 0.00 0.00 0.00 87 1014.0
20260904072005 75 332 0.0 1.7 0.00 0.00 0.00 88 1014.0
20260904071005 75 272 0.0 0.9 0.00 0.00 0.00 88 1013.8
20260904070004 75 80 0.0 0.9 0.00 0.00 0.00 88 1013.5
20260904063005 76 279 0.0 0.0 0.00 0.00 0.00 88 1013.1
20260904062010 76 280 0.0 0.0 0.00 0.00 0.00 88 1013.0
20260904061005 76 291 0.0 0.0 0.00 0.00 0.00 88 1013.1
20260904060004 76 292 0.0 0.9 0.00 0.00 0.00 87 1013.1
20260904055005 76 292 0.0 0.0 0.00 0.00 0.00 87 1013.3
20260904053004 76 291 0.0 0.0 0.00 0.00 0.00 87 1013.4
20260904051005 76 291 0.0 0.0 0.00 0.00 0.00 87 1013.4
20260904050004 76 291 0.0 0.0 0.00 0.00 0.00 87 1013.5
20260904045004 76 291 0.0 0.9 0.00 0.00 0.00 87 1013.6
20260904044005 76 292 0.0 0.9 0.00 0.00 0.00 87 1013.5
20260904043005 76 292 0.0 0.9 0.00 0.00 0.00 86 1013.3
20260904042004 76 292 0.0 3.5 0.00 0.00 0.00 86 1013.4
20260904041004 76 344 0.9 1.7 0.00 0.00 0.00 86 1013.5
20260904040004 76 257 0.0 0.9 0.00 0.00 0.58 86 1013.6
20260904035004 77 257 0.0 1.7 0.00 0.00 0.58 86 1013.8
20260904034004 77 351 0.0 1.7 0.00 0.00 0.57 86 1014.3
20260904033005 77 46 0.0 0.0 0.00 0.00 0.56 85 1014.6
20260904032005 77 46 0.0 0.0 0.00 0.00 0.56 85 1014.4
20260904030004 77 46 0.0 0.0 0.00 0.00 0.56 85 1014.8
20260904025005 77 46 0.0 0.0 0.00 0.00 0.56 85 1014.6
20260904024005 77 46 0.0 0.0 0.00 0.00 0.56 85 1014.5
20260904021004 77 46 0.0 0.0 0.00 0.00 0.56 84 1014.4
20260904020005 77 46 0.0 0.0 0.00 0.00 0.56 84 1014.3
20260904015005 77 294 0.0 0.0 0.00 0.00 0.56 84 1014.2
20260904014005 77 294 0.0 0.0 0.00 0.00 0.56 84 1014.5
20260904012004 77 294 0.0 0.0 0.00 0.00 0.56 84 1014.8
20260904005004 78 295 0.0 0.0 0.00 0.00 0.56 83 1015.2
20260904004005 78 295 0.0 0.0 0.00 0.00 0.56 83 1014.9
20260904003004 78 295 0.0 0.0 0.00 0.00 0.56 83 1015.0
20260904002005 78 295 0.0 0.0 0.00 0.00 0.56 83 1014.9
20260904001004 79 295 0.0 0.0 0.00 0.00 0.56 82 1014.8
20260904000004 79 295 0.0 0.0 0.00 0.00 0.56 82 1014.5
20260903235005 79 295 0.0 0.0 0.00 0.00 0.56 81 1014.3
20260903234005 80 295 0.0 0.0 0.00 0.00 0.56 81 1014.4
20260903232004 80 295 0.0 0.0 0.00 0.00 0.56 80 1014.6
20260903231004 81 295 0.0 0.0 0.00 0.00 0.56 80 1014.3
20260903230004 81 295 0.0 0.0 0.00 0.00 0.56 79 1014.3
20260903225004 82 21 0.0 0.0 0.00 0.00 0.56 78 1014.2
20260903224004 82 288 0.0 0.0 0.00 0.00 0.56 78 1014.1
20260903223004 82 274 0.0 0.0 0.00 0.00 0.56 78 1014.0
20260903222005 83 275 0.0 0.0 0.00 0.00 0.56 78 1014.1
20260903221004 83 272 0.0 1.7 0.00 0.00 0.56 77 1014.2
20260903220004 83 129 0.0 3.5 0.00 0.00 0.56 77 1014.2
20260903215004 84 124 0.0 1.7 0.00 0.00 0.56 76 1014.2
20260903214005 84 125 0.0 5.2 0.00 0.00 0.56 75 1014.2
20260903213004 84 98 0.9 4.3 0.00 0.00 0.56 74 1014.0
20260903211004 84 20 0.9 5.2 0.00 0.00 0.56 74 1014.1
20260903210005 85 70 1.7 6.1 0.00 0.00 0.56 74 1014.1
20260903205004 85 248 0.0 6.1 0.00 0.00 0.56 74 1014.3
20260903204005 85 85 0.0 6.1 0.00 0.00 0.56 74 1014.2
20260903203005 86 236 2.6 7.0 0.00 0.00 0.56 75 1014.4
20260903202005 85 281 0.9 7.0 0.00 0.00 0.56 75 1014.5
20260903201005 85 229 0.0 5.2 0.00 0.00 0.56 76 1014.7
20260903200004 85 68 0.0 7.0 0.00 0.00 0.56 74 1014.8
20260903195004 85 93 0.0 7.0 0.00 0.00 0.56 74 1014.9
20260903194004 85 160 0.0 4.3 0.00 0.00 0.56 74 1014.8
20260903193005 85 34 0.0 6.1 0.00 0.00 0.56 74 1015.0
20260903192004 85 314 3.5 4.3 0.00 0.00 0.56 74 1015.1
20260903191005 85 298 0.0 6.1 0.00 0.00 0.56 74 1015.3
20260903190005 85 229 0.0 4.3 0.00 0.00 0.56 76 1015.5
20260903185004 85 138 1.7 5.2 0.00 0.00 0.56 75 1015.5
20260903184004 85 248 3.5 4.3 0.00 0.00 0.56 75 1015.6
20260903183005 85 360 1.7 5.2 0.00 0.00 0.56 74 1015.6
20260903182004 85 98 0.0 7.0 0.00 0.00 0.56 75 1015.8
20260903181004 84 222 0.0 6.1 0.00 0.00 0.56 75 1015.9
20260903180004 84 223 0.0 5.2 0.00 0.00 0.56 77 1015.8
20260903175005 84 235 0.0 5.2 0.00 0.00 0.56 77 1015.8
20260903174004 83 270 1.7 6.1 0.00 0.00 0.56 77 1015.9
20260903173005 82 88 0.0 0.0 0.00 0.00 0.56 80 1015.8
20260903172005 81 16 0.0 3.5 0.00 0.00 0.56 82 1016.0
20260903171004 80 295 0.0 2.6 0.00 0.00 0.56 81 1016.1
20260903170004 81 292 0.9 4.3 0.00 0.00 0.56 83 1016.3
20260903165004 79 17 0.9 7.0 0.00 0.00 0.56 89 1016.6
20260903164004 77 294 0.0 6.1 0.00 0.00 0.56 90 1017.0
20260903161004 76 254 0.9 4.3 0.00 0.00 0.56 91 1017.9
20260903160004 76 272 0.0 7.0 0.00 0.00 0.56 91 1018.2
20260903155005 76 294 0.9 9.6 0.00 0.00 0.56 91 1018.1
20260903154005 76 61 1.7 6.1 0.00 0.00 0.56 91 1017.9
20260903153005 76 251 0.0 6.1 0.00 0.00 0.56 91 1017.6
20260903152004 76 288 4.3 7.0 0.00 0.00 0.56 91 1017.9
20260903151004 76 76 3.5 5.2 0.00 0.00 0.56 91 1018.0
20260903150004 76 57 0.9 4.3 0.00 0.00 0.56 91 1017.5
20260903145004 76 94 1.7 5.2 0.00 0.00 0.56 91 1017.4
20260903144004 76 279 0.0 5.2 0.00 0.00 0.56 91 1017.1
20260903141004 75 46 1.7 5.2 0.00 0.00 0.56 91 1016.8
20260903140005 75 273 3.5 4.3 0.00 0.00 0.56 91 1016.7
20260903134004 74 87 1.7 6.1 0.00 0.00 0.56 91 1017.0
20260903133004 74 44 2.6 5.2 0.00 0.00 0.56 91 1017.1
20260903132005 73 124 0.0 4.3 0.00 0.00 0.56 91 1017.2
20260903131004 73 9 0.9 1.7 0.00 0.00 0.56 91 1017.1
20260903130005 72 9 0.0 3.5 0.00 0.00 0.56 91 1016.8
20260903124004 72 148 0.9 3.5 0.00 0.00 0.56 91 1017.2